TimePST,TemperatureF,Dew PointF,Humidity,Sea Level PressureIn,VisibilityMPH,Wind Direction,Wind SpeedMPH,Gust SpeedMPH,PrecipitationIn,Events,Conditions,WindDirDegrees,DateUTC
12:56 AM,19.0,16.0,88,30.21,10.0,Calm,Calm,-,N/A,,Clear,0,2013-03-09 08:56:00
1:56 AM,18.0,15.1,88,30.22,10.0,Calm,Calm,-,N/A,,Clear,0,2013-03-09 09:56:00
2:56 AM,17.1,14.0,88,30.23,10.0,Calm,Calm,-,N/A,,Partly Cloudy,0,2013-03-09 10:56:00
3:40 AM,17.6,14.0,86,30.16,10.0,Calm,Calm,-,N/A,,Mostly Cloudy,0,2013-03-09 11:40:00
3:56 AM,18.0,15.1,88,30.26,10.0,Calm,Calm,-,N/A,,Overcast,0,2013-03-09 11:56:00
4:17 AM,17.6,15.8,93,30.17,10.0,Calm,Calm,-,N/A,,Overcast,0,2013-03-09 12:17:00
4:56 AM,19.0,16.0,88,30.27,10.0,Calm,Calm,-,N/A,,Overcast,0,2013-03-09 12:56:00
6:56 AM,19.0,15.1,85,30.33,10.0,Calm,Calm,-,N/A,,Clear,0,2013-03-09 14:56:00
7:56 AM,24.1,23.0,96,30.34,10.0,Calm,Calm,-,N/A,,Clear,0,2013-03-09 15:56:00
8:56 AM,34.0,28.0,79,30.34,10.0,Calm,Calm,-,N/A,,Clear,0,2013-03-09 16:56:00
9:56 AM,39.9,26.1,58,30.34,10.0,Variable,3.5,-,N/A,,Clear,0,2013-03-09 17:56:00
10:56 AM,41.0,26.1,55,30.36,10.0,Variable,3.5,-,N/A,,Clear,0,2013-03-09 18:56:00
11:56 AM,43.0,25.0,49,30.38,10.0,Variable,5.8,-,N/A,,Partly Cloudy,0,2013-03-09 19:56:00
12:56 PM,44.1,23.0,43,30.39,10.0,WNW,8.1,-,N/A,,Clear,290,2013-03-09 20:56:00
1:56 PM,44.1,24.1,45,30.40,10.0,Variable,5.8,-,N/A,,Clear,0,2013-03-09 21:56:00
2:56 PM,44.1,19.0,37,30.40,10.0,Variable,5.8,-,N/A,,Clear,0,2013-03-09 22:56:00
3:56 PM,44.1,19.0,37,30.41,10.0,Variable,4.6,-,N/A,,Clear,0,2013-03-09 23:56:00
4:56 PM,43.0,19.0,38,30.42,10.0,Calm,Calm,-,N/A,,Clear,0,2013-03-10 00:56:00
5:56 PM,37.0,19.9,50,30.44,10.0,Calm,Calm,-,N/A,,Clear,0,2013-03-10 01:56:00
6:56 PM,30.0,19.9,66,30.47,10.0,Calm,Calm,-,N/A,,Clear,0,2013-03-10 02:56:00
7:56 PM,28.0,19.9,72,30.47,10.0,Calm,Calm,-,N/A,,Clear,0,2013-03-10 03:56:00
8:56 PM,26.1,19.9,78,30.46,10.0,Calm,Calm,-,N/A,,Clear,0,2013-03-10 04:56:00
9:56 PM,25.0,19.9,81,30.46,10.0,Calm,Calm,-,N/A,,Clear,0,2013-03-10 05:56:00
10:56 PM,23.0,19.0,85,30.47,10.0,Calm,Calm,-,N/A,,Clear,0,2013-03-10 06:56:00
11:56 PM,21.9,18.0,85,30.46,10.0,Calm,Calm,-,N/A,,Clear,0,2013-03-10 07:56:00